Location: Makanda
(37.6176°N, 89.2090°W)
Time: 05:18:04
(UTC+00:00)

Cosmos 1536 - Pass Details

Date: 23 September 2019
Orbit: 541 x 559 km, 82.5° (Epoch: 19 October)

Event Time Altitude Azimuth Distance (km) Brightness Sun altitude
Rises 09:42:48 0° 354° (N) 2,706 6.5 -24.6°
Reaches altitude 10° 09:44:59 10° 357° (N) 1,810 5.6 -24.2°
Maximum altitude 09:48:57 74° 82° (E) 566 2.9 -23.4°
Enters shadow 09:49:58 48° 154° (SSE) 718 3.3 -23.2°
